User: anonymous   Login
Location: ?nandapuram
(16.5396°N, 81.1430°E)
Time: 14:23:23
(UTC+00:00)
Language:

Spot 4 Rocket - Orbit

View from above orbital plane
View from above orbital plane
View from above satellite
View from above satellite

Ground track
Ground track

The orbit is defined by the following mean orbital elements,

1 25261U          26160.07431575 +.00000000 +00000-0 +11214-3 0 00008
2 25261  98.8146 190.8274 0004238 135.5075 224.6451 14.36341946    03
Epoch (UTC): 09 June 2026 01:47:00
Eccentricity: 0.0004238
inclination: 98.8146°
perigee height: 768 km
apogee height: 774 km
right ascension of ascending node: 190.8274°
argument of perigee: 135.5075°
revolutions per day: 14.36341946
mean anomaly at epoch: 224.6451°

The dashed part of the orbit path shows where the satellite is in the earth's shadow,  

DLR